Hourly Data Report for October 26, 2012

All times are specified in Local Standard Time (LST). Add 1 hour to adjust for Daylight Saving Time where and when it is observed.

IQALUIT CLIMATE
NUNAVUT

63°44'50.000" N
68°32'40.000" W
33.50 m
2402592
71321
XFB

Download Data

Hourly Data (October 2012)
Hourly Data Report for October 26, 2012
Temp Definition
°C
Dew Point Temp Definition
°C
Rel Hum Definition
%
Wind Dir Definition
10's deg

Wind Spd Definition
km/h
Visibility Definition
km
Stn Press Definition
kPa
Hmdx Definition


Wind Chill Definition


Weather Definition


TIME
00:00 -3.7 -4.5 94 16 2   101.95   -5 LegendNANA
01:00 -3.1 -3.8 95 14 9   101.95   -7 LegendNANA
02:00 -2.9 -3.4 96 13 9   101.98   -6 LegendNANA
03:00 -3.0 -3.5 96 13 7   101.94   -6 LegendNANA
04:00 -2.8 -4.1 91 17 6   101.94   -5 LegendNANA
05:00 -2.6 -4.7 85 16 6   101.94   -5 LegendNANA
06:00 -3.0 -5.1 85 13 9   101.90   -7 LegendNANA
07:00 -3.1 -5.3 85 13 13   101.87   -8 LegendNANA
08:00 -3.2 -5.2 86 13 13   101.85   -8 LegendNANA
09:00 -3.0 -5.4 83 13 11   101.77   -7 LegendNANA
10:00 -3.4 -6.3 80 10 17   101.69   -9 LegendNANA
11:00 -3.9 -6.4 83 10 17   101.65   -10 LegendNANA
12:00 -3.7 -5.5 87 12 20   101.53   -10 LegendNANA
13:00 -3.8 -5.5 88 12 20   101.42   -10 LegendNANA
14:00 -3.6 -5.4 87 12 24   101.33   -10 LegendNANA
15:00 -3.0 -4.2 91 13 30   101.17   -10 LegendNANA
16:00 -2.9 -3.3 97 13 26   101.03   -10 LegendNANA
17:00 -2.8 -4.2 90 11 20   100.88   -9 LegendNANA
18:00 -1.9 -3.2 91 12 28   100.67   -9 LegendNANA
19:00 -0.1 -1.2 92 14 37   100.58   -7 LegendNANA
20:00 0.6 -0.6 92 14 50   100.47     LegendNANA
21:00 0.5 0.5 100 14 56   100.37     LegendNANA
22:00 0.4 0.4 100 14 50   100.33     LegendNANA
23:00 0.6 0.6 100 14 48   100.21     LegendNANA

Notes on Data Quality.

Legend

  • E = Estimated
  • M = Missing
  • NA = Not Available
  • ‡ = Partner data that is not subject to review by the National Climate Archives
Date modified: